;;Bezug aus vorgelagerter Netzebene MS
;;[kW]
01.01.2021;00:00:00;70.436
01.01.2021;00:15:00;68.253
01.01.2021;00:30:00;66.215
01.01.2021;00:45:00;64.490
01.01.2021;01:00:00;62.950
01.01.2021;01:15:00;61.290
01.01.2021;01:30:00;60.144
01.01.2021;01:45:00;59.410
01.01.2021;02:00:00;60.087
01.01.2021;02:15:00;59.781
01.01.2021;02:30:00;59.716
01.01.2021;02:45:00;59.901
01.01.2021;03:00:00;60.404
01.01.2021;03:15:00;60.558
01.01.2021;03:30:00;60.844
01.01.2021;03:45:00;61.097
01.01.2021;04:00:00;61.911
01.01.2021;04:15:00;62.135
01.01.2021;04:30:00;62.723
01.01.2021;04:45:00;62.831
01.01.2021;05:00:00;62.589
01.01.2021;05:15:00;60.926
01.01.2021;05:30:00;58.618
01.01.2021;05:45:00;57.296
01.01.2021;06:00:00;47.440
01.01.2021;06:15:00;47.278
01.01.2021;06:30:00;48.037
01.01.2021;06:45:00;48.847
01.01.2021;07:00:00;50.541
01.01.2021;07:15:00;52.147
01.01.2021;07:30:00;54.377
01.01.2021;07:45:00;56.441
01.01.2021;08:00:00;58.912
01.01.2021;08:15:00;61.190
01.01.2021;08:30:00;62.915
01.01.2021;08:45:00;64.793
01.01.2021;09:00:00;66.840
01.01.2021;09:15:00;68.903
01.01.2021;09:30:00;71.212
01.01.2021;09:45:00;72.680
01.01.2021;10:00:00;73.909
01.01.2021;10:15:00;75.331
01.01.2021;10:30:00;76.646
01.01.2021;10:45:00;78.078
01.01.2021;11:00:00;79.521
01.01.2021;11:15:00;80.809
01.01.2021;11:30:00;81.494
01.01.2021;11:45:00;80.418
01.01.2021;12:00:00;79.303
01.01.2021;12:15:00;77.758
01.01.2021;12:30:00;73.807
01.01.2021;12:45:00;69.382
01.01.2021;13:00:00;72.022
01.01.2021;13:15:00;72.408
01.01.2021;13:30:00;74.796
01.01.2021;13:45:00;75.014
01.01.2021;14:00:00;74.110
01.01.2021;14:15:00;72.649
01.01.2021;14:30:00;72.224
01.01.2021;14:45:00;71.934
01.01.2021;15:00:00;72.029
01.01.2021;15:15:00;72.043
01.01.2021;15:30:00;73.064
01.01.2021;15:45:00;73.366
01.01.2021;16:00:00;74.586
01.01.2021;16:15:00;76.779
01.01.2021;16:30:00;78.850
01.01.2021;16:45:00;81.996
01.01.2021;17:00:00;85.121
01.01.2021;17:15:00;87.559
01.01.2021;17:30:00;89.063
01.01.2021;17:45:00;90.400
01.01.2021;18:00:00;91.334
01.01.2021;18:15:00;91.847
01.01.2021;18:30:00;91.660
01.01.2021;18:45:00;91.204
01.01.2021;19:00:00;89.896
01.01.2021;19:15:00;88.444
01.01.2021;19:30:00;86.896
01.01.2021;19:45:00;85.394
01.01.2021;20:00:00;83.992
01.01.2021;20:15:00;81.672
01.01.2021;20:30:00;79.257
01.01.2021;20:45:00;77.060
01.01.2021;21:00:00;81.282
01.01.2021;21:15:00;81.221
01.01.2021;21:30:00;80.002
01.01.2021;21:45:00;75.998
01.01.2021;22:00:00;86.051
01.01.2021;22:15:00;84.306
01.01.2021;22:30:00;80.321
01.01.2021;22:45:00;76.232
01.01.2021;23:00:00;77.765
01.01.2021;23:15:00;75.057
01.01.2021;23:30:00;72.747
01.01.2021;23:45:00;70.225
02.01.2021;00:00:00;70.983
02.01.2021;00:15:00;68.321
02.01.2021;00:30:00;66.380
02.01.2021;00:45:00;65.029
02.01.2021;01:00:00;64.003
02.01.2021;01:15:00;62.748
02.01.2021;01:30:00;61.603
02.01.2021;01:45:00;60.775
02.01.2021;02:00:00;61.603
02.01.2021;02:15:00;61.138
02.01.2021;02:30:00;60.590
02.01.2021;02:45:00;60.887
02.01.2021;03:00:00;61.553
02.01.2021;03:15:00;61.681
02.01.2021;03:30:00;62.199
02.01.2021;03:45:00;62.728
02.01.2021;04:00:00;63.654
02.01.2021;04:15:00;63.915
02.01.2021;04:30:00;64.616
02.01.2021;04:45:00;64.970
02.01.2021;05:00:00;65.325
02.01.2021;05:15:00;63.976
02.01.2021;05:30:00;62.070
02.01.2021;05:45:00;60.811
02.01.2021;06:00:00;50.669
02.01.2021;06:15:00;50.398
02.01.2021;06:30:00;51.584
02.01.2021;06:45:00;52.726
02.01.2021;07:00:00;54.758
02.01.2021;07:15:00;56.770
02.01.2021;07:30:00;59.400
02.01.2021;07:45:00;62.066
02.01.2021;08:00:00;64.811
02.01.2021;08:15:00;66.756
02.01.2021;08:30:00;67.967
02.01.2021;08:45:00;69.421
02.01.2021;09:00:00;71.398
02.01.2021;09:15:00;73.358
02.01.2021;09:30:00;74.737
02.01.2021;09:45:00;76.082
02.01.2021;10:00:00;76.874
02.01.2021;10:15:00;77.164
02.01.2021;10:30:00;77.504
02.01.2021;10:45:00;76.320
02.01.2021;11:00:00;77.956
02.01.2021;11:15:00;79.534
02.01.2021;11:30:00;78.663
02.01.2021;11:45:00;77.980
02.01.2021;12:00:00;74.624
02.01.2021;12:15:00;73.689
02.01.2021;12:30:00;75.383
02.01.2021;12:45:00;76.608
02.01.2021;13:00:00;77.827
02.01.2021;13:15:00;77.770
02.01.2021;13:30:00;78.619
02.01.2021;13:45:00;77.463
02.01.2021;14:00:00;76.297
02.01.2021;14:15:00;75.663
02.01.2021;14:30:00;76.512
02.01.2021;14:45:00;76.528
02.01.2021;15:00:00;76.849
02.01.2021;15:15:00;76.671
02.01.2021;15:30:00;77.733
02.01.2021;15:45:00;78.134
02.01.2021;16:00:00;79.196
02.01.2021;16:15:00;81.585
02.01.2021;16:30:00;83.393
02.01.2021;16:45:00;86.602
02.01.2021;17:00:00;89.046
02.01.2021;17:15:00;90.720
02.01.2021;17:30:00;92.059
02.01.2021;17:45:00;93.081
02.01.2021;18:00:00;93.630
02.01.2021;18:15:00;93.517
02.01.2021;18:30:00;93.224
02.01.2021;18:45:00;92.475
02.01.2021;19:00:00;91.034
02.01.2021;19:15:00;89.401
02.01.2021;19:30:00;87.732
02.01.2021;19:45:00;86.142
02.01.2021;20:00:00;84.082
02.01.2021;20:15:00;81.110
02.01.2021;20:30:00;78.509
02.01.2021;20:45:00;76.736
02.01.2021;21:00:00;82.404
02.01.2021;21:15:00;81.831
02.01.2021;21:30:00;80.217
02.01.2021;21:45:00;76.407
02.01.2021;22:00:00;87.334
02.01.2021;22:15:00;86.298
02.01.2021;22:30:00;83.124
02.01.2021;22:45:00;79.955
02.01.2021;23:00:00;82.020
02.01.2021;23:15:00;80.065
02.01.2021;23:30:00;77.879
02.01.2021;23:45:00;74.466
03.01.2021;00:00:00;72.147
03.01.2021;00:15:00;70.514
03.01.2021;00:30:00;68.563
03.01.2021;00:45:00;66.825
03.01.2021;01:00:00;65.418
03.01.2021;01:15:00;63.599
03.01.2021;01:30:00;62.388
03.01.2021;01:45:00;61.598
03.01.2021;02:00:00;62.230
03.01.2021;02:15:00;61.961
03.01.2021;02:30:00;61.783
03.01.2021;02:45:00;61.735
03.01.2021;03:00:00;62.230
03.01.2021;03:15:00;62.192
03.01.2021;03:30:00;62.468
03.01.2021;03:45:00;62.723
03.01.2021;04:00:00;63.373
03.01.2021;04:15:00;63.488
03.01.2021;04:30:00;63.962
03.01.2021;04:45:00;63.964
03.01.2021;05:00:00;63.889
03.01.2021;05:15:00;62.076
03.01.2021;05:30:00;59.653
03.01.2021;05:45:00;58.032
03.01.2021;06:00:00;47.825
03.01.2021;06:15:00;46.727
03.01.2021;06:30:00;47.424
03.01.2021;06:45:00;48.357
03.01.2021;07:00:00;49.812
03.01.2021;07:15:00;51.504
03.01.2021;07:30:00;53.755
03.01.2021;07:45:00;56.112
03.01.2021;08:00:00;58.600
03.01.2021;08:15:00;60.904
03.01.2021;08:30:00;62.516
03.01.2021;08:45:00;64.412
03.01.2021;09:00:00;66.398
03.01.2021;09:15:00;68.378
03.01.2021;09:30:00;70.290
03.01.2021;09:45:00;71.673
03.01.2021;10:00:00;73.844
03.01.2021;10:15:00;74.950
03.01.2021;10:30:00;76.195
03.01.2021;10:45:00;77.497
03.01.2021;11:00:00;78.667
03.01.2021;11:15:00;79.772
03.01.2021;11:30:00;79.673
03.01.2021;11:45:00;78.896
03.01.2021;12:00:00;80.432
03.01.2021;12:15:00;79.472
03.01.2021;12:30:00;78.931
03.01.2021;12:45:00;76.830
03.01.2021;13:00:00;76.021
03.01.2021;13:15:00;73.157
03.01.2021;13:30:00;73.143
03.01.2021;13:45:00;71.890
03.01.2021;14:00:00;72.639
03.01.2021;14:15:00;72.085
03.01.2021;14:30:00;71.843
03.01.2021;14:45:00;71.241
03.01.2021;15:00:00;70.615
03.01.2021;15:15:00;70.423
03.01.2021;15:30:00;71.821
03.01.2021;15:45:00;72.773
03.01.2021;16:00:00;74.323
03.01.2021;16:15:00;76.530
03.01.2021;16:30:00;78.659
03.01.2021;16:45:00;81.897
03.01.2021;17:00:00;85.181
03.01.2021;17:15:00;87.495
03.01.2021;17:30:00;89.159
03.01.2021;17:45:00;90.446
03.01.2021;18:00:00;91.208
03.01.2021;18:15:00;91.675
03.01.2021;18:30:00;91.628
03.01.2021;18:45:00;91.248
03.01.2021;19:00:00;90.025
03.01.2021;19:15:00;88.549
03.01.2021;19:30:00;86.910
03.01.2021;19:45:00;85.620
03.01.2021;20:00:00;84.401
03.01.2021;20:15:00;82.226
03.01.2021;20:30:00;79.660
03.01.2021;20:45:00;77.222
03.01.2021;21:00:00;78.668
03.01.2021;21:15:00;81.524
03.01.2021;21:30:00;79.791
03.01.2021;21:45:00;75.779
03.01.2021;22:00:00;86.093
03.01.2021;22:15:00;85.455
03.01.2021;22:30:00;81.652
03.01.2021;22:45:00;77.731
03.01.2021;23:00:00;78.408
03.01.2021;23:15:00;76.641
03.01.2021;23:30:00;74.522
03.01.2021;23:45:00;72.178
04.01.2021;00:00:00;69.280
04.01.2021;00:15:00;66.666
04.01.2021;00:30:00;64.589
04.01.2021;00:45:00;62.952
04.01.2021;01:00:00;61.870
04.01.2021;01:15:00;60.729
04.01.2021;01:30:00;60.232
04.01.2021;01:45:00;60.088
04.01.2021;02:00:00;61.308
04.01.2021;02:15:00;61.332
04.01.2021;02:30:00;61.500
04.01.2021;02:45:00;61.811
04.01.2021;03:00:00;62.532
04.01.2021;03:15:00;62.925
04.01.2021;03:30:00;63.496
04.01.2021;03:45:00;64.052
04.01.2021;04:00:00;65.084
04.01.2021;04:15:00;65.538
04.01.2021;04:30:00;66.736
04.01.2021;04:45:00;67.626
04.01.2021;05:00:00;69.044
04.01.2021;05:15:00;68.804
04.01.2021;05:30:00;68.656
04.01.2021;05:45:00;69.693
04.01.2021;06:00:00;62.027
04.01.2021;06:15:00;63.687
04.01.2021;06:30:00;66.951
04.01.2021;06:45:00;69.873
04.01.2021;07:00:00;72.687
04.01.2021;07:15:00;74.651
04.01.2021;07:30:00;76.028
04.01.2021;07:45:00;77.531
04.01.2021;08:00:00;78.813
04.01.2021;08:15:00;79.249
04.01.2021;08:30:00;78.468
04.01.2021;08:45:00;78.808
04.01.2021;09:00:00;79.130
04.01.2021;09:15:00;79.487
04.01.2021;09:30:00;79.996
04.01.2021;09:45:00;79.936
04.01.2021;10:00:00;80.286
04.01.2021;10:15:00;80.321
04.01.2021;10:30:00;80.814
04.01.2021;10:45:00;80.941
04.01.2021;11:00:00;81.640
04.01.2021;11:15:00;83.059
04.01.2021;11:30:00;83.797
04.01.2021;11:45:00;83.592
04.01.2021;12:00:00;83.853
04.01.2021;12:15:00;84.280
04.01.2021;12:30:00;82.936
04.01.2021;12:45:00;82.274
04.01.2021;13:00:00;82.916
04.01.2021;13:15:00;82.694
04.01.2021;13:30:00;82.516
04.01.2021;13:45:00;82.589
04.01.2021;14:00:00;81.794
04.01.2021;14:15:00;80.988
04.01.2021;14:30:00;81.092
04.01.2021;14:45:00;80.762
04.01.2021;15:00:00;81.105
04.01.2021;15:15:00;81.095
04.01.2021;15:30:00;81.922
04.01.2021;15:45:00;82.165
04.01.2021;16:00:00;83.485
04.01.2021;16:15:00;85.464
04.01.2021;16:30:00;87.309
04.01.2021;16:45:00;90.148
04.01.2021;17:00:00;92.551
04.01.2021;17:15:00;94.458
04.01.2021;17:30:00;95.691
04.01.2021;17:45:00;97.739
04.01.2021;18:00:00;98.547
04.01.2021;18:15:00;98.578
04.01.2021;18:30:00;98.283
04.01.2021;18:45:00;97.972
04.01.2021;19:00:00;96.589
04.01.2021;19:15:00;95.130
04.01.2021;19:30:00;93.597
04.01.2021;19:45:00;92.071
04.01.2021;20:00:00;89.745
04.01.2021;20:15:00;86.850
04.01.2021;20:30:00;84.415
04.01.2021;20:45:00;82.077
04.01.2021;21:00:00;86.076
04.01.2021;21:15:00;88.519
04.01.2021;21:30:00;85.826
04.01.2021;21:45:00;80.851
04.01.2021;22:00:00;89.739
04.01.2021;22:15:00;88.745
04.01.2021;22:30:00;84.655
04.01.2021;22:45:00;80.429
04.01.2021;23:00:00;81.233
04.01.2021;23:15:00;79.207
04.01.2021;23:30:00;76.628
04.01.2021;23:45:00;73.175
05.01.2021;00:00:00;68.068
05.01.2021;00:15:00;65.253
05.01.2021;00:30:00;62.910
05.01.2021;00:45:00;60.975
05.01.2021;01:00:00;59.966
05.01.2021;01:15:00;58.926
05.01.2021;01:30:00;58.299
05.01.2021;01:45:00;58.149
05.01.2021;02:00:00;59.243
05.01.2021;02:15:00;59.219
05.01.2021;02:30:00;59.555
05.01.2021;02:45:00;59.997
05.01.2021;03:00:00;60.692
05.01.2021;03:15:00;61.064
05.01.2021;03:30:00;61.764
05.01.2021;03:45:00;62.372
05.01.2021;04:00:00;63.836
05.01.2021;04:15:00;64.565
05.01.2021;04:30:00;65.748
05.01.2021;04:45:00;66.681
05.01.2021;05:00:00;68.166
05.01.2021;05:15:00;68.088
05.01.2021;05:30:00;68.109
05.01.2021;05:45:00;69.519
05.01.2021;06:00:00;62.168
05.01.2021;06:15:00;63.978
05.01.2021;06:30:00;67.411
05.01.2021;06:45:00;70.753
05.01.2021;07:00:00;73.455
05.01.2021;07:15:00;75.204
05.01.2021;07:30:00;76.276
05.01.2021;07:45:00;77.719
05.01.2021;08:00:00;79.204
05.01.2021;08:15:00;79.850
05.01.2021;08:30:00;79.231
05.01.2021;08:45:00;79.378
05.01.2021;09:00:00;79.874
05.01.2021;09:15:00;79.802
05.01.2021;09:30:00;80.459
05.01.2021;09:45:00;80.682
05.01.2021;10:00:00;80.690
05.01.2021;10:15:00;80.855
05.01.2021;10:30:00;80.411
05.01.2021;10:45:00;80.235
05.01.2021;11:00:00;80.724
05.01.2021;11:15:00;81.598
05.01.2021;11:30:00;81.727
05.01.2021;11:45:00;81.529
05.01.2021;12:00:00;82.464
05.01.2021;12:15:00;83.084
05.01.2021;12:30:00;82.274
05.01.2021;12:45:00;81.751
05.01.2021;13:00:00;81.824
05.01.2021;13:15:00;81.200
05.01.2021;13:30:00;81.044
05.01.2021;13:45:00;81.088
05.01.2021;14:00:00;80.356
05.01.2021;14:15:00;79.803
05.01.2021;14:30:00;79.330
05.01.2021;14:45:00;79.426
05.01.2021;15:00:00;79.874
05.01.2021;15:15:00;80.207
05.01.2021;15:30:00;81.208
05.01.2021;15:45:00;81.745
05.01.2021;16:00:00;83.446
05.01.2021;16:15:00;85.689
05.01.2021;16:30:00;87.686
05.01.2021;16:45:00;90.392
05.01.2021;17:00:00;92.977
05.01.2021;17:15:00;94.884
05.01.2021;17:30:00;96.242
05.01.2021;17:45:00;98.043
05.01.2021;18:00:00;98.822
05.01.2021;18:15:00;98.794
05.01.2021;18:30:00;98.572
05.01.2021;18:45:00;97.944
05.01.2021;19:00:00;96.550
05.01.2021;19:15:00;95.128
05.01.2021;19:30:00;93.603
05.01.2021;19:45:00;92.072
05.01.2021;20:00:00;89.694
05.01.2021;20:15:00;86.813
05.01.2021;20:30:00;84.188
05.01.2021;20:45:00;81.615
05.01.2021;21:00:00;85.456
05.01.2021;21:15:00;87.831
05.01.2021;21:30:00;85.068
05.01.2021;21:45:00;80.095
05.01.2021;22:00:00;87.679
05.01.2021;22:15:00;86.515
05.01.2021;22:30:00;82.461
05.01.2021;22:45:00;78.096
05.01.2021;23:00:00;78.631
05.01.2021;23:15:00;76.483
05.01.2021;23:30:00;73.989
05.01.2021;23:45:00;70.548
06.01.2021;00:00:00;74.529
06.01.2021;00:15:00;72.519
06.01.2021;00:30:00;70.573
06.01.2021;00:45:00;68.848
06.01.2021;01:00:00;67.303
06.01.2021;01:15:00;65.679
06.01.2021;01:30:00;64.629
06.01.2021;01:45:00;63.689
06.01.2021;02:00:00;64.456
06.01.2021;02:15:00;63.999
06.01.2021;02:30:00;63.748
06.01.2021;02:45:00;63.857
06.01.2021;03:00:00;64.342
06.01.2021;03:15:00;64.357
06.01.2021;03:30:00;64.529
06.01.2021;03:45:00;64.668
06.01.2021;04:00:00;65.277
06.01.2021;04:15:00;65.270
06.01.2021;04:30:00;65.707
06.01.2021;04:45:00;65.709
06.01.2021;05:00:00;65.413
06.01.2021;05:15:00;63.449
06.01.2021;05:30:00;60.772
06.01.2021;05:45:00;58.797
06.01.2021;06:00:00;47.954
06.01.2021;06:15:00;47.599
06.01.2021;06:30:00;48.270
06.01.2021;06:45:00;49.236
06.01.2021;07:00:00;50.768
06.01.2021;07:15:00;52.538
06.01.2021;07:30:00;54.970
06.01.2021;07:45:00;56.944
06.01.2021;08:00:00;59.238
06.01.2021;08:15:00;61.687
06.01.2021;08:30:00;63.359
06.01.2021;08:45:00;65.524
06.01.2021;09:00:00;67.730
06.01.2021;09:15:00;69.812
06.01.2021;09:30:00;72.086
06.01.2021;09:45:00;74.044
06.01.2021;10:00:00;75.483
06.01.2021;10:15:00;77.112
06.01.2021;10:30:00;78.695
06.01.2021;10:45:00;80.322
06.01.2021;11:00:00;81.678
06.01.2021;11:15:00;83.653
06.01.2021;11:30:00;84.797
06.01.2021;11:45:00;85.344
06.01.2021;12:00:00;85.166
06.01.2021;12:15:00;85.295
06.01.2021;12:30:00;84.264
06.01.2021;12:45:00;82.249
06.01.2021;13:00:00;81.362
06.01.2021;13:15:00;79.408
06.01.2021;13:30:00;78.416
06.01.2021;13:45:00;77.335
06.01.2021;14:00:00;76.368
06.01.2021;14:15:00;75.039
06.01.2021;14:30:00;74.417
06.01.2021;14:45:00;73.906
06.01.2021;15:00:00;73.547
06.01.2021;15:15:00;73.157
06.01.2021;15:30:00;73.920
06.01.2021;15:45:00;74.187
06.01.2021;16:00:00;75.331
06.01.2021;16:15:00;77.380
06.01.2021;16:30:00;79.589
06.01.2021;16:45:00;82.948
06.01.2021;17:00:00;86.258
06.01.2021;17:15:00;88.635
06.01.2021;17:30:00;90.299
06.01.2021;17:45:00;91.825
06.01.2021;18:00:00;92.981
06.01.2021;18:15:00;93.439
06.01.2021;18:30:00;93.154
06.01.2021;18:45:00;92.730
06.01.2021;19:00:00;91.393
06.01.2021;19:15:00;89.725
06.01.2021;19:30:00;88.227
06.01.2021;19:45:00;86.755
06.01.2021;20:00:00;85.303
06.01.2021;20:15:00;82.975
06.01.2021;20:30:00;80.480
06.01.2021;20:45:00;78.200
06.01.2021;21:00:00;82.482
06.01.2021;21:15:00;82.427
06.01.2021;21:30:00;81.066
06.01.2021;21:45:00;76.764
06.01.2021;22:00:00;88.830
06.01.2021;22:15:00;87.158
06.01.2021;22:30:00;83.243
06.01.2021;22:45:00;79.079
06.01.2021;23:00:00;80.878
06.01.2021;23:15:00;78.340
06.01.2021;23:30:00;76.081
06.01.2021;23:45:00;73.288
07.01.2021;00:00:00;68.251
07.01.2021;00:15:00;65.967
07.01.2021;00:30:00;64.027
07.01.2021;00:45:00;62.462
07.01.2021;01:00:00;61.271
07.01.2021;01:15:00;60.350
07.01.2021;01:30:00;59.766
07.01.2021;01:45:00;59.706
07.01.2021;02:00:00;60.857
07.01.2021;02:15:00;60.979
07.01.2021;02:30:00;61.213
07.01.2021;02:45:00;61.558
07.01.2021;03:00:00;62.195
07.01.2021;03:15:00;62.356
07.01.2021;03:30:00;62.955
07.01.2021;03:45:00;63.708
07.01.2021;04:00:00;64.694
07.01.2021;04:15:00;65.458
07.01.2021;04:30:00;66.697
07.01.2021;04:45:00;67.739
07.01.2021;05:00:00;69.228
07.01.2021;05:15:00;69.237
07.01.2021;05:30:00;69.084
07.01.2021;05:45:00;70.207
07.01.2021;06:00:00;62.431
07.01.2021;06:15:00;65.091
07.01.2021;06:30:00;68.422
07.01.2021;06:45:00;71.731
07.01.2021;07:00:00;74.852
07.01.2021;07:15:00;76.477
07.01.2021;07:30:00;77.926
07.01.2021;07:45:00;79.117
07.01.2021;08:00:00;79.898
07.01.2021;08:15:00;79.599
07.01.2021;08:30:00;79.536
07.01.2021;08:45:00;79.840
07.01.2021;09:00:00;80.405
07.01.2021;09:15:00;80.602
07.01.2021;09:30:00;81.522
07.01.2021;09:45:00;81.818
07.01.2021;10:00:00;82.166
07.01.2021;10:15:00;82.462
07.01.2021;10:30:00;82.846
07.01.2021;10:45:00;83.072
07.01.2021;11:00:00;83.730
07.01.2021;11:15:00;84.826
07.01.2021;11:30:00;85.474
07.01.2021;11:45:00;85.398
07.01.2021;12:00:00;86.003
07.01.2021;12:15:00;86.576
07.01.2021;12:30:00;85.330
07.01.2021;12:45:00;84.749
07.01.2021;13:00:00;85.157
07.01.2021;13:15:00;84.522
07.01.2021;13:30:00;83.784
07.01.2021;13:45:00;83.371
07.01.2021;14:00:00;82.636
07.01.2021;14:15:00;81.965
07.01.2021;14:30:00;81.877
07.01.2021;14:45:00;81.724
07.01.2021;15:00:00;81.527
07.01.2021;15:15:00;81.307
07.01.2021;15:30:00;81.993
07.01.2021;15:45:00;82.455
07.01.2021;16:00:00;83.961
07.01.2021;16:15:00;86.162
07.01.2021;16:30:00;88.206
07.01.2021;16:45:00;90.861
07.01.2021;17:00:00;93.643
07.01.2021;17:15:00;95.614
07.01.2021;17:30:00;96.963
07.01.2021;17:45:00;98.683
07.01.2021;18:00:00;99.340
07.01.2021;18:15:00;99.382
07.01.2021;18:30:00;99.357
07.01.2021;18:45:00;98.864
07.01.2021;19:00:00;97.168
07.01.2021;19:15:00;95.653
07.01.2021;19:30:00;94.006
07.01.2021;19:45:00;92.413
07.01.2021;20:00:00;89.845
07.01.2021;20:15:00;86.974
07.01.2021;20:30:00;84.206
07.01.2021;20:45:00;81.684
07.01.2021;21:00:00;88.021
07.01.2021;21:15:00;87.475
07.01.2021;21:30:00;85.094
07.01.2021;21:45:00;79.902
07.01.2021;22:00:00;89.151
07.01.2021;22:15:00;87.209
07.01.2021;22:30:00;83.001
07.01.2021;22:45:00;78.824
07.01.2021;23:00:00;80.128
07.01.2021;23:15:00;77.560
07.01.2021;23:30:00;75.170
07.01.2021;23:45:00;71.730
08.01.2021;00:00:00;69.147
08.01.2021;00:15:00;66.986
08.01.2021;00:30:00;64.811
08.01.2021;00:45:00;63.342
08.01.2021;01:00:00;62.320
08.01.2021;01:15:00;61.167
08.01.2021;01:30:00;60.655
08.01.2021;01:45:00;60.491
08.01.2021;02:00:00;61.663
08.01.2021;02:15:00;61.811
08.01.2021;02:30:00;61.872
08.01.2021;02:45:00;62.286
08.01.2021;03:00:00;62.962
08.01.2021;03:15:00;63.220
08.01.2021;03:30:00;63.941
08.01.2021;03:45:00;64.617
08.01.2021;04:00:00;65.650
08.01.2021;04:15:00;66.463
08.01.2021;04:30:00;67.611
08.01.2021;04:45:00;68.462
08.01.2021;05:00:00;69.865
08.01.2021;05:15:00;69.811
08.01.2021;05:30:00;69.576
08.01.2021;05:45:00;70.361
08.01.2021;06:00:00;62.301
08.01.2021;06:15:00;65.063
08.01.2021;06:30:00;68.355
08.01.2021;06:45:00;71.373
08.01.2021;07:00:00;74.488
08.01.2021;07:15:00;76.357
08.01.2021;07:30:00;77.437
08.01.2021;07:45:00;78.255
08.01.2021;08:00:00;79.121
08.01.2021;08:15:00;78.764
08.01.2021;08:30:00;78.753
08.01.2021;08:45:00;79.147
08.01.2021;09:00:00;79.737
08.01.2021;09:15:00;80.201
08.01.2021;09:30:00;80.774
08.01.2021;09:45:00;81.015
08.01.2021;10:00:00;81.211
08.01.2021;10:15:00;81.522
08.01.2021;10:30:00;81.879
08.01.2021;10:45:00;82.302
08.01.2021;11:00:00;82.935
08.01.2021;11:15:00;83.940
08.01.2021;11:30:00;84.548
08.01.2021;11:45:00;84.443
08.01.2021;12:00:00;85.023
08.01.2021;12:15:00;85.125
08.01.2021;12:30:00;84.138
08.01.2021;12:45:00;83.596
08.01.2021;13:00:00;83.787
08.01.2021;13:15:00;82.976
08.01.2021;13:30:00;82.070
08.01.2021;13:45:00;81.596
08.01.2021;14:00:00;80.531
08.01.2021;14:15:00;80.249
08.01.2021;14:30:00;80.214
08.01.2021;14:45:00;80.151
08.01.2021;15:00:00;80.217
08.01.2021;15:15:00;80.093
08.01.2021;15:30:00;80.772
08.01.2021;15:45:00;81.190
08.01.2021;16:00:00;82.769
08.01.2021;16:15:00;84.832
08.01.2021;16:30:00;86.948
08.01.2021;16:45:00;89.944
08.01.2021;17:00:00;92.968
08.01.2021;17:15:00;94.688
08.01.2021;17:30:00;96.061
08.01.2021;17:45:00;98.104
08.01.2021;18:00:00;98.831
08.01.2021;18:15:00;98.698
08.01.2021;18:30:00;98.328
08.01.2021;18:45:00;97.975
08.01.2021;19:00:00;96.514
08.01.2021;19:15:00;95.025
08.01.2021;19:30:00;93.391
08.01.2021;19:45:00;91.820
08.01.2021;20:00:00;89.442
08.01.2021;20:15:00;86.528
08.01.2021;20:30:00;83.933
08.01.2021;20:45:00;81.502
08.01.2021;21:00:00;88.788
08.01.2021;21:15:00;88.379
08.01.2021;21:30:00;86.172
08.01.2021;21:45:00;81.059
08.01.2021;22:00:00;90.338
08.01.2021;22:15:00;88.508
08.01.2021;22:30:00;84.148
08.01.2021;22:45:00;79.835
08.01.2021;23:00:00;81.242
08.01.2021;23:15:00;78.588
08.01.2021;23:30:00;76.070
08.01.2021;23:45:00;72.535
09.01.2021;00:00:00;73.688
09.01.2021;00:15:00;71.108
09.01.2021;00:30:00;69.311
09.01.2021;00:45:00;67.834
09.01.2021;01:00:00;66.822
09.01.2021;01:15:00;65.426
09.01.2021;01:30:00;64.374
09.01.2021;01:45:00;63.672
09.01.2021;02:00:00;64.326
09.01.2021;02:15:00;63.978
09.01.2021;02:30:00;63.726
09.01.2021;02:45:00;63.926
09.01.2021;03:00:00;64.476
09.01.2021;03:15:00;64.622
09.01.2021;03:30:00;65.100
09.01.2021;03:45:00;65.327
09.01.2021;04:00:00;66.127
09.01.2021;04:15:00;66.509
09.01.2021;04:30:00;67.160
09.01.2021;04:45:00;67.367
09.01.2021;05:00:00;67.459
09.01.2021;05:15:00;66.084
09.01.2021;05:30:00;63.982
09.01.2021;05:45:00;62.630
09.01.2021;06:00:00;51.881
09.01.2021;06:15:00;51.490
09.01.2021;06:30:00;52.394
09.01.2021;06:45:00;53.717
09.01.2021;07:00:00;55.628
09.01.2021;07:15:00;57.880
09.01.2021;07:30:00;60.566
09.01.2021;07:45:00;62.773
09.01.2021;08:00:00;65.150
09.01.2021;08:15:00;66.781
09.01.2021;08:30:00;68.841
09.01.2021;08:45:00;70.895
09.01.2021;09:00:00;73.284
09.01.2021;09:15:00;75.154
09.01.2021;09:30:00;76.672
09.01.2021;09:45:00;78.103
09.01.2021;10:00:00;79.584
09.01.2021;10:15:00;80.285
09.01.2021;10:30:00;81.357
09.01.2021;10:45:00;82.107
09.01.2021;11:00:00;83.085
09.01.2021;11:15:00;84.460
09.01.2021;11:30:00;85.198
09.01.2021;11:45:00;85.243
09.01.2021;12:00:00;85.437
09.01.2021;12:15:00;85.911
09.01.2021;12:30:00;85.096
09.01.2021;12:45:00;84.022
09.01.2021;13:00:00;83.827
09.01.2021;13:15:00;82.481
09.01.2021;13:30:00;81.607
09.01.2021;13:45:00;80.780
09.01.2021;14:00:00;79.349
09.01.2021;14:15:00;78.360
09.01.2021;14:30:00;78.340
09.01.2021;14:45:00;78.055
09.01.2021;15:00:00;77.862
09.01.2021;15:15:00;77.734
09.01.2021;15:30:00;78.958
09.01.2021;15:45:00;78.900
09.01.2021;16:00:00;79.504
09.01.2021;16:15:00;80.896
09.01.2021;16:30:00;83.119
09.01.2021;16:45:00;86.524
09.01.2021;17:00:00;89.283
09.01.2021;17:15:00;91.232
09.01.2021;17:30:00;92.532
09.01.2021;17:45:00;93.578
09.01.2021;18:00:00;94.083
09.01.2021;18:15:00;94.144
09.01.2021;18:30:00;93.654
09.01.2021;18:45:00;92.919
09.01.2021;19:00:00;91.457
09.01.2021;19:15:00;90.096
09.01.2021;19:30:00;88.333
09.01.2021;19:45:00;86.804
09.01.2021;20:00:00;84.759
09.01.2021;20:15:00;82.012
09.01.2021;20:30:00;79.596
09.01.2021;20:45:00;77.597
09.01.2021;21:00:00;83.348
09.01.2021;21:15:00;82.673
09.01.2021;21:30:00;80.958